Lid_Strength_Index
-1 -1 -1 2 7 7 9 8 6 6 6 5 5 5 6 6 7 8 1 -0 -0 -1 -2 -2 -2 -2 -2 -2 -2 -2 -2 -2 -2 -2 -2 -2 -2 -2 -2 -2 -2 -2 -2 -2 -2 -2 -2 -1 -1
-1 -0 1 3 8 10 8 6 7 5 5 5 5 5 5 7 4 3 1 -0 -1 -1 -2 -2 -2 -2 -2 -2 -2 -2 -2 -2 -2 -2 -2 -2 -2 -2 -2 -2 -2 -2 -2 -2 -2 -2 -2 -1 -1
-1 -0 4 6 7 10 9 6 6 5 5 5 5 4 5 5 3 2 0 -1 -1 -1 -1 -2 -3 -1 -2 -2 -1 -2 -2 -2 -2 -2 -2 -2 -2 -2 -2 -2 -2 -2 -2 -2 -2 -2 -2 -2 -1
1 2 3 8 9 7 7 5 5 5 5 4 4 6 3 1 2 1 -0 -0 -0 -1 -1 -2 -1 -1 -1 -1 -2 -2 -2 -2 -2 -2 -2 -2 -2 -2 -2 -2 -2 -2 -2 -2 -2 -2 -2 -2 -2
1 3 7 8 8 7 5 4 5 5 4 4 4 5 4 2 0 0 -0 -0 -0 -1 -1 -2 -1 -1 -1 -1 -2 -2 -2 -2 -2 -2 -2 -2 -2 -2 -2 -2 -2 -2 -2 -2 -2 -2 -2 -2 -2
4 4 8 9 8 6 5 4 5 5 4 5 5 5 4 1 1 0 -0 -1 -1 -1 -1 -2 -1 -1 -1 -1 -1 -1 -1 -1 -1 -2 -2 -2 -2 -2 -2 -2 -2 -2 -2 -2 -2 -2 -2 -2 -2
5 6 8 8 8 7 6 4 5 5 5 5 4 5 3 2 1 -0 -0 -0 -1 -1 -1 -2 -2 -2 -1 -1 -1 -1 -1 -1 -1 -2 -2 -2 -2 -2 -2 -2 -2 -2 -2 -2 -2 -2 -2 -2 -2
4 5 7 7 8 8 5 5 4 5 5 4 3 5 5 2 0 0 0 0 -0 -1 -1 -1 -2 -2 -2 -2 -1 -1 -2 -1 -1 -2 -2 -1 -1 -2 -2 -2 -2 -2 -1 -2 -2 -2 -2 -2 -2
2 7 8 7 7 6 4 5 4 5 5 4 3 3 2 1 1 1 1 1 -0 -0 -1 -1 -1 -2 -2 -2 -2 -1 -1 -2 -1 -1 -1 -1 -2 -2 -2 -2 -2 -2 -2 -2 -2 -2 -1 -2 -1
5 7 7 5 5 5 4 4 4 6 5 4 4 2 2 2 1 1 1 1 1 1 -0 -1 -1 -1 -2 -1 -2 -2 -2 -1 -1 -1 -1 -1 -2 -2 -1 -1 -1 -2 -2 -2 -2 -2 -1 -1 -2
5 7 6 5 4 4 4 4 4 5 5 4 4 3 3 2 1 1 1 1 1 0 -0 -0 -1 -1 -1 -1 -1 -1 -1 -1 -1 -1 -2 -1 -1 -2 -2 -2 -2 -2 -2 -2 -2 -2 -1 -2 -2
7 6 5 5 4 4 5 4 5 5 4 3 3 2 2 2 2 2 2 1 1 1 -0 -1 -1 -1 -1 -1 -1 -1 -0 -1 -1 -1 -1 -1 -1 -1 -1 -1 -1 -1 -2 -2 -2 -1 -2 -2 -2
6 6 5 5 4 5 5 5 5 4 3 3 3 3 3 2 2 1 1 1 1 1 0 -0 -1 -1 -1 -1 -1 -1 -1 -1 -1 -1 -2 -2 -1 -1 -1 -1 -1 -1 -1 -1 -1 -1 -1 -1 -1
5 5 5 6 5 6 6 6 6 4 3 3 3 3 2 2 2 2 1 1 1 0 0 -0 -0 -1 -1 -1 -1 -1 -1 -1 -1 -1 -1 -2 -1 -1 -1 -1 -1 -1 -2 -1 -1 -1 -1 -1 -1
5 7 6 6 6 6 6 7 7 4 4 4 4 3 2 2 2 2 2 1 1 0 0 -0 -0 -1 -1 -1 -1 -1 -1 -1 -1 -1 -2 -2 -2 -2 -1 -1 -0 -1 -2 -2 -1 -1 -1 -1 -1
6 6 8 5 6 6 7 9 6 4 4 4 4 3 3 2 3 2 1 1 0 0 1 -0 -0 -1 -1 -1 -1 -1 -1 -1 -1 -1 -1 -2 -2 -2 -1 -1 -1 -2 -2 -1 -1 -0 -0 -0 -0
6 9 8 7 5 6 7 7 5 4 4 4 4 3 3 3 3 2 1 1 1 1 1 -0 -1 -0 -1 -1 -1 -1 -1 -1 -1 -2 -2 -1 -1 -2 -1 -1 -1 -2 -1 -1 -1 -0 -0 0 0
9 8 8 8 6 7 7 7 5 4 4 4 4 4 3 3 3 1 1 1 1 1 0 -0 -0 -1 -1 -1 -1 -1 -1 -1 -2 -1 -0 -1 -2 -1 -1 -1 -1 -1 -1 -1 -1 -0 -0 -0 0
7 8 8 7 6 7 7 7 6 4 4 4 4 4 4 3 2 1 1 1 0 1 1 -0 0 -1 -0 0 1 0 1 1 -1 -1 -0 -0 -1 -1 -1 -1 -1 -1 -0 -1 -1 -0 0 0 -0
7 8 8 7 6 6 7 7 5 5 4 4 4 4 4 3 3 2 2 1 1 1 1 0 0 -0 -1 -0 -0 0 0 -0 0 0 -0 -1 -1 -1 -1 -1 -0 -1 -0 -0 -0 -0 1 0 -0
7 8 8 8 7 6 7 8 6 5 4 4 4 3 3 3 3 3 2 1 1 1 1 1 0 -0 -1 -1 -0 -0 -1 -1 -0 1 0 -0 -0 -1 -1 -1 -1 -1 -1 0 -0 -0 0 2 1
9 6 7 8 8 10 7 12 8 6 6 5 4 4 4 3 3 3 2 2 1 1 0 1 0 -0 -0 -1 -0 0 1 2 1 0 -0 0 -1 -0 -1 -1 -1 -1 -0 -0 -0 -1 -0 1 2
8 6 7 7 8 9 9 10 8 6 7 6 4 4 4 3 3 3 2 2 1 0 0 -0 0 -0 -0 -1 -0 0 1 1 -0 -1 0 -0 -0 -1 -1 -1 -1 -1 -1 -1 -0 -0 -0 0 2
5 7 7 7 8 12 9 10 9 7 7 6 4 4 4 3 3 2 2 1 1 0 0 0 1 -0 -0 -0 -0 -0 1 1 1 1 1 1 -0 -0 -0 -0 -0 -1 -1 -0 -0 -1 -0 0 0
6 8 12 13 13 13 9 10 8 6 5 5 5 4 4 3 3 3 3 2 1 1 1 1 1 0 -0 -0 -0 -0 -0 0 1 1 1 1 1 0 0 -0 -0 -0 -1 -1 -1 -0 -0 0 1
7 8 11 15 14 12 9 11 8 5 4 4 4 4 4 3 3 3 2 2 1 1 1 1 1 1 0 -0 -0 -1 -0 0 1 0 1 1 1 1 -0 0 -1 -1 -1 -1 -1 -0 -0 -0 0
8 9 7 10 9 12 10 8 6 5 5 5 5 5 4 4 3 3 2 2 1 1 1 1 1 0 0 -0 -0 -0 -0 -0 0 -0 -0 0 0 0 -0 -0 0 -1 -0 -0 -1 -0 0 0 0
6 6 10 10 15 15 11 10 9 7 7 6 6 5 4 4 3 3 2 2 1 1 0 0 0 0 0 -0 -0 -0 -1 -1 -1 -1 -0 -0 -0 0 0 -0 -0 -0 -1 -1 -0 0 -0 0 0
8 8 8 8 9 13 14 11 6 6 6 6 5 5 4 4 3 3 2 2 1 1 1 1 0 0 -0 -0 -0 -0 -0 -1 -1 -0 -0 -0 -0 -1 0 1 0 0 -0 -0 -0 -0 0 1 1
6 7 8 11 12 10 10 10 5 5 5 5 5 5 4 3 3 3 2 2 1 1 1 1 1 0 0 -0 -0 -0 -0 -1 -0 -0 -0 -1 -0 -0 -0 0 0 0 0 -0 0 0 0 1 1